Hourly Weather Munino

Today, 28 September, Tuesday

Time Temperature Precipitation Wind Pressure Humidity
00:00 +7°C° 0 mm 4 mps 750 mmHg 88%
01:00 +7°C° 0 mm 4 mps 751 mmHg 86%
02:00 +6°C° 0 mm 4 mps 751 mmHg 83%
03:00 +6°C° 0 mm 4 mps 751 mmHg 83%
04:00 +6°C° 0 mm 4 mps 752 mmHg 81%
05:00 +5°C° 0 mm 4 mps 753 mmHg 78%
06:00 +4°C° 0 mm 4 mps 753 mmHg 76%
07:00 +5°C° 0 mm 5 mps 754 mmHg 74%
08:00 +5°C° 0 mm 5 mps 754 mmHg 73%
09:00 +5°C° 0 mm 5 mps 755 mmHg 72%
10:00 +6°C° 0 mm 5 mps 755 mmHg 67%
11:00 +7°C° 0 mm 5 mps 755 mmHg 62%
12:00 +7°C° 0 mm 5 mps 756 mmHg 57%
13:00 +7°C° 0 mm 6 mps 756 mmHg 55%
14:00 +7°C° 0 mm 6 mps 756 mmHg 53%
15:00 +7°C° 0 mm 6 mps 757 mmHg 51%
16:00 +7°C° 0 mm 5 mps 757 mmHg 52%
17:00 +7°C° 0 mm 5 mps 757 mmHg 54%
18:00 +7°C° 0 mm 4 mps 758 mmHg 55%
19:00 +8°C° 0 mm 3 mps 758 mmHg 56%
20:00 +8°C° 0 mm 3 mps 758 mmHg 57%
21:00 +7°C° 0 mm 3 mps 758 mmHg 58%
22:00 +7°C° 0 mm 3 mps 758 mmHg 58%
23:00 +7°C° 0 mm 3 mps 759 mmHg 57%

Tomorrow, 29 September, Wednesday

Time Temperature Precipitation Wind Pressure Humidity
00:00 +7°C° 0 mm 3 mps 759 mmHg 57%
01:00 +5°C° 0 mm 3 mps 759 mmHg 61%
02:00 +4°C° 0 mm 4 mps 759 mmHg 64%
03:00 +3°C° 0 mm 4 mps 759 mmHg 68%
04:00 +3°C° 0 mm 4 mps 759 mmHg 69%
05:00 +3°C° 0 mm 4 mps 760 mmHg 70%
06:00 +3°C° 0 mm 4 mps 760 mmHg 71%
07:00 +4°C° 0 mm 4 mps 760 mmHg 65%
08:00 +5°C° 0 mm 5 mps 760 mmHg 59%
09:00 +6°C° 0 mm 5 mps 761 mmHg 53%
10:00 +7°C° 0 mm 5 mps 761 mmHg 49%
11:00 +8°C° 0 mm 5 mps 761 mmHg 45%
12:00 +9°C° 0 mm 5 mps 761 mmHg 41%
13:00 +9°C° 0 mm 5 mps 761 mmHg 39%
14:00 +10°C° 0 mm 5 mps 761 mmHg 38%
15:00 +10°C° 0 mm 5 mps 760 mmHg 37%
16:00 +9°C° 0 mm 5 mps 761 mmHg 40%
17:00 +8°C° 0 mm 4 mps 761 mmHg 44%
18:00 +8°C° 0 mm 3 mps 761 mmHg 47%
19:00 +7°C° 0 mm 3 mps 761 mmHg 50%
20:00 +5°C° 0 mm 3 mps 761 mmHg 52%
21:00 +5°C° 0 mm 3 mps 762 mmHg 54%
22:00 +4°C° 0 mm 3 mps 762 mmHg 56%
23:00 +4°C° 0 mm 3 mps 762 mmHg 58%

Day after tomorrow, 30 September, Thursday

Time Temperature Precipitation Wind Pressure Humidity
00:00 +3°C° 0 mm 3 mps 762 mmHg 60%
01:00 +3°C° 0 mm 3 mps 762 mmHg 62%
02:00 +3°C° 0 mm 3 mps 762 mmHg 63%
03:00 +2°C° 0 mm 3 mps 762 mmHg 65%
04:00 +2°C° 0 mm 3 mps 763 mmHg 66%
05:00 +2°C° 0 mm 3 mps 763 mmHg 68%
06:00 +1°C° 0 mm 3 mps 763 mmHg 69%
07:00 +3°C° 0 mm 3 mps 763 mmHg 63%
08:00 +5°C° 0 mm 3 mps 764 mmHg 56%
09:00 +8°C° 0 mm 3 mps 764 mmHg 50%
10:00 +9°C° 0 mm 3 mps 764 mmHg 46%
11:00 +10°C° 0 mm 3 mps 764 mmHg 42%
12:00 +10°C° 0 mm 3 mps 764 mmHg 38%
13:00 +11°C° 0 mm 3 mps 764 mmHg 37%
14:00 +11°C° 0 mm 3 mps 764 mmHg 36%
15:00 +11°C° 0 mm 3 mps 763 mmHg 35%
16:00 +10°C° 0 mm 3 mps 764 mmHg 40%
17:00 +9°C° 0 mm 3 mps 764 mmHg 44%
18:00 +8°C° 0 mm 2 mps 764 mmHg 49%
19:00 +8°C° 0 mm 2 mps 764 mmHg 50%
20:00 +8°C° 0 mm 2 mps 764 mmHg 51%
21:00 +8°C° 0 mm 2 mps 764 mmHg 52%
22:00 +9°C° 0 mm 1 mps 764 mmHg 51%
23:00 +9°C° 0 mm 1 mps 764 mmHg 51%

1 October, Friday

Time Temperature Precipitation Wind Pressure Humidity
00:00 +9°C° 0 mm 1 mps 764 mmHg 50%
01:00 +8°C° 0 mm 2 mps 764 mmHg 53%
02:00 +7°C° 0 mm 2 mps 764 mmHg 56%
03:00 +6°C° 0 mm 2 mps 764 mmHg 59%
04:00 +6°C° 0 mm 2 mps 764 mmHg 61%
05:00 +6°C° 0 mm 2 mps 765 mmHg 64%
06:00 +5°C° 0 mm 2 mps 765 mmHg 66%
07:00 +6°C° 0 mm 2 mps 765 mmHg 64%
08:00 +7°C° 0 mm 2 mps 765 mmHg 61%
09:00 +9°C° 0 mm 2 mps 765 mmHg 58%
10:00 +9°C° 0 mm 3 mps 765 mmHg 58%
11:00 +10°C° 0 mm 3 mps 765 mmHg 57%
12:00 +11°C° 0 mm 3 mps 765 mmHg 57%
13:00 +11°C° 0 mm 3 mps 765 mmHg 57%
14:00 +11°C° 0 mm 3 mps 765 mmHg 57%
15:00 +12°C° 0 mm 3 mps 764 mmHg 58%
16:00 +11°C° 0 mm 3 mps 764 mmHg 61%
17:00 +12°C° 0 mm 2 mps 765 mmHg 65%
18:00 +10°C° 0 mm 2 mps 765 mmHg 69%
19:00 +10°C° 0 mm 2 mps 765 mmHg 72%
20:00 +9°C° 0 mm 2 mps 765 mmHg 75%
21:00 +9°C° 0 mm 2 mps 765 mmHg 78%
22:00 +9°C° 0 mm 2 mps 765 mmHg 78%
23:00 +10°C° 0 mm 1 mps 765 mmHg 78%

2 October, Saturday

Time Temperature Precipitation Wind Pressure Humidity
00:00 +10°C° 0 mm 1 mps 765 mmHg 78%
01:00 +11°C° 0 mm 1 mps 765 mmHg 78%
02:00 +11°C° 0 mm 1 mps 765 mmHg 78%
03:00 +11°C° 0 mm 1 mps 765 mmHg 77%
04:00 +11°C° 0 mm 1 mps 765 mmHg 77%
05:00 +11°C° 0 mm 1 mps 765 mmHg 77%
06:00 +11°C° 0 mm 1 mps 765 mmHg 77%
07:00 +12°C° 0 mm 1 mps 765 mmHg 74%
08:00 +12°C° 0 mm 1 mps 765 mmHg 71%
09:00 +12°C° 0 mm 0 mps 765 mmHg 68%
10:00 +12°C° 0 mm 0 mps 765 mmHg 65%
11:00 +13°C° 0 mm 0 mps 765 mmHg 61%
12:00 +14°C° 0 mm 0 mps 765 mmHg 58%
13:00 +15°C° 0 mm 1 mps 765 mmHg 55%
14:00 +16°C° 0 mm 1 mps 765 mmHg 53%
15:00 +16°C° 0 mm 1 mps 765 mmHg 50%
16:00 +15°C° 0 mm 1 mps 765 mmHg 54%
17:00 +15°C° 0 mm 2 mps 765 mmHg 58%
18:00 +14°C° 0 mm 2 mps 765 mmHg 63%
19:00 +14°C° 0 mm 2 mps 765 mmHg 63%
20:00 +13°C° 0 mm 2 mps 765 mmHg 63%
21:00 +13°C° 0 mm 1 mps 765 mmHg 63%
22:00 +13°C° 0 mm 1 mps 765 mmHg 64%
23:00 +13°C° 0 mm 1 mps 765 mmHg 64%

3 October, Sunday

Time Temperature Precipitation Wind Pressure Humidity
00:00 +13°C° 0 mm 1 mps 765 mmHg 64%
01:00 +13°C° 0 mm 1 mps 765 mmHg 65%
02:00 +13°C° 0 mm 1 mps 765 mmHg 65%
03:00 +13°C° 0 mm 1 mps 765 mmHg 66%
04:00 +13°C° 0 mm 1 mps 765 mmHg 66%
05:00 +13°C° 0 mm 1 mps 765 mmHg 66%
06:00 +13°C° 0 mm 1 mps 765 mmHg 67%
07:00 +13°C° 0 mm 1 mps 765 mmHg 66%
08:00 +13°C° 0 mm 1 mps 765 mmHg 65%
09:00 +14°C° 0 mm 1 mps 765 mmHg 63%
10:00 +13°C° 0 mm 0 mps 765 mmHg 61%
11:00 +14°C° 0 mm 0 mps 765 mmHg 59%
12:00 +14°C° 0 mm 0 mps 765 mmHg 57%
13:00 +14°C° 0 mm 0 mps 765 mmHg 56%
14:00 +14°C° 0 mm 0 mps 765 mmHg 55%
15:00 +16°C° 0 mm 1 mps 764 mmHg 54%
16:00 +15°C° 0 mm 1 mps 764 mmHg 57%
17:00 +15°C° 0 mm 1 mps 764 mmHg 59%
18:00 +14°C° 0 mm 1 mps 764 mmHg 61%
19:00 +14°C° 0 mm 1 mps 764 mmHg 63%
20:00 +14°C° 0 mm 1 mps 764 mmHg 64%
21:00 +14°C° 0 mm 1 mps 764 mmHg 65%
22:00 +14°C° 0 mm 1 mps 764 mmHg 66%
23:00 +13°C° 0 mm 1 mps 764 mmHg 67%
Show more

We Need Your Consent

Meteoprog and our Service Providers may store and access personal data such as cookies, device identifiers or other similar technologies on your device and process such data to personalise content and ads, as well as provide social media features and to analyse the traffic.

  • Store and/or access information on your device

    Cookies, device identifiers or other information can be stored or accessed on your device for the purposes indicated above.

  • Personalised ads and content, ad and content measurement, audience insights, and products development

    Ads and content can be personalised based on a profile. More data can be added to better personalise ads and content. Ad and content performance can be measured. Insights about the audience who saw the ads and content can be derived. Such data can be used to develop or improve user’s experience, systems and software.

By clicking ‘I Agree’ you will allow the use of indicated cookies, device identifiers, web beacons or other similar technologies. Your settings can be changed in the browser on your device.

For certain purposes, legitimate interests may be relied on, rather than consent. You can read more about this in our Privacy and Cookie Policy.